Wind_Speed
9 7 5 3 10 7 7 7 7 9 9 9 10 14 12 12 15 15 15 20 22 19 17 17 11 11 13 15 15 11 12 13 11 12 14 14 16 13 21 13 10 8 10 12
11 10 10 8 8 9 10 8 8 12 10 8 12 13 18 15 12 13 15 16 19 22 21 19 13 8 9 12 12 10 12 14 13 13 15 16 17 16 14 19 16 12 10 13
13 10 14 12 11 12 12 10 11 14 10 9 12 16 12 15 20 15 15 16 19 19 21 17 10 7 7 9 9 8 10 13 13 13 13 15 17 17 15 19 17 13 11 12
15 16 15 15 14 13 11 12 11 11 11 12 11 14 17 17 18 13 17 17 18 16 16 12 9 10 9 10 9 7 9 11 12 12 13 14 16 17 15 17 18 15 11 9
15 13 13 13 14 14 11 15 13 12 11 14 10 7 8 14 4 12 13 16 16 16 15 14 14 12 13 10 9 8 11 11 12 10 11 11 13 15 14 19 17 14 12 11
13 12 12 14 15 14 14 13 14 15 12 11 7 7 7 11 13 16 14 16 16 15 17 20 15 11 13 9 7 6 10 11 11 9 9 9 13 15 17 17 16 17 12 9
11 12 13 12 11 12 12 10 10 9 12 10 12 13 10 11 11 12 15 19 18 16 17 21 21 14 14 13 9 5 6 9 9 9 8 7 9 12 15 17 18 17 15 12
9 5 15 14 11 9 10 10 9 12 8 12 16 13 9 14 20 11 14 18 21 20 21 20 21 16 13 14 12 11 9 7 8 11 8 7 9 8 13 13 14 16 16 17
8 8 24 24 20 13 5 12 10 13 14 13 13 11 12 6 7 9 10 18 20 19 21 21 16 13 12 12 12 12 11 11 9 8 8 8 9 10 13 15 15 15 16 16
12 17 13 13 24 20 16 13 13 9 14 11 9 13 12 11 14 19 17 18 20 20 19 16 13 12 12 12 13 14 13 10 11 12 10 9 10 11 13 13 12 12 13 15
21 21 17 19 18 13 16 17 14 15 16 17 15 16 27 17 11 25 22 16 18 20 15 12 12 12 14 13 12 13 15 13 12 14 13 11 11 12 14 12 11 11 13 13
25 21 23 22 23 24 24 29 25 19 19 18 17 19 17 22 16 30 33 24 26 19 17 11 14 14 14 16 13 12 13 16 14 14 15 14 13 12 12 13 13 12 13 14
26 23 25 21 16 25 23 23 25 24 24 27 26 23 27 21 22 39 33 26 26 21 17 13 16 15 16 18 15 13 13 15 15 14 16 16 16 16 15 15 16 15 14 14
31 29 28 28 24 25 25 21 24 23 25 24 26 24 22 31 31 41 29 28 28 25 23 25 17 17 17 18 14 13 13 12 15 16 17 17 18 19 17 17 16 16 15 15
34 34 32 33 33 33 36 41 40 38 37 34 30 32 33 31 24 37 33 27 29 30 29 25 22 22 24 18 18 15 14 13 13 16 18 22 22 19 17 16 15 16 16 15
33 34 35 36 35 36 38 39 38 39 37 39 38 41 38 44 50 56 48 38 46 37 33 31 29 27 28 20 19 15 17 16 14 15 16 22 23 23 20 17 19 18 17 16
33 32 33 37 36 37 40 30 35 35 33 34 34 31 33 38 47 44 42 31 40 42 41 36 33 31 35 22 20 17 14 17 16 15 15 13 21 26 24 22 23 22 18 17
31 34 35 36 34 37 27 37 35 33 36 36 41 44 45 44 44 39 42 37 39 40 43 42 38 33 36 33 20 20 15 15 17 15 16 15 15 24 27 26 26 24 21 21
34 36 36 37 35 35 27 29 40 31 31 38 38 39 42 37 33 33 38 36 40 40 43 45 42 35 29 23 23 23 19 18 17 18 15 15 11 18 23 28 30 27 26 25
34 37 37 37 37 32 24 43 43 33 31 40 39 37 39 38 32 39 40 35 40 42 42 48 48 42 36 33 32 28 24 22 21 18 20 17 18 22 24 24 29 28 28 26
41 36 34 36 37 33 32 45 40 31 36 42 38 35 38 39 40 38 40 41 38 41 43 46 51 46 40 39 38 34 31 26 23 21 19 19 18 19 18 24 20 27 26 25
36 36 31 27 28 27 42 37 38 39 39 38 37 38 38 39 42 44 42 43 43 39 45 46 49 53 48 42 43 40 36 32 29 23 20 21 21 19 17 20 24 29 28 22
35 36 35 35 33 38 41 37 37 40 37 37 39 39 41 41 42 39 41 41 42 42 45 46 48 50 51 46 43 41 39 37 34 28 24 24 21 20 17 15 15 23 24 26
35 38 33 36 31 35 37 37 40 41 42 41 40 42 40 41 41 42 43 46 46 43 46 48 49 47 50 50 47 45 41 40 36 32 29 28 24 22 17 17 17 18 19 23
32 37 33 28 26 32 31 34 37 39 40 38 38 37 38 39 42 41 42 47 51 48 48 50 50 49 50 53 53 48 46 44 41 36 31 28 27 24 18 16 11 13 21 17
30 29 29 27 26 31 29 32 35 40 39 38 39 37 36 36 38 43 47 52 54 53 49 51 51 53 52 55 58 55 49 46 39 37 35 28 26 24 22 19 18 16 17 20
Wind_Direction
285 292 298 266 247 238 243 264 281 303 313 322 343 339 333 324 301 329 322 327 323 320 329 329 323 315 289 283 294 279 272 263 254 256 254 249 245 232 228 204 210 228 210 217
277 285 277 266 251 252 261 271 281 291 300 312 340 335 348 312 344 325 341 336 321 321 319 321 324 326 309 286 288 286 276 258 249 247 248 254 254 250 241 193 205 218 227 223
272 256 280 268 261 262 270 278 279 280 294 337 320 336 315 324 321 332 331 327 321 324 322 318 309 317 320 312 302 283 281 254 236 236 247 254 260 257 245 195 197 209 204 224
273 270 280 276 273 270 270 269 283 284 297 308 310 319 333 306 326 348 323 317 325 317 328 326 318 309 308 300 289 280 272 248 233 230 239 251 267 261 233 207 199 197 197 218
273 280 275 275 272 273 270 281 292 300 304 318 327 312 307 303 322 290 303 306 313 327 339 322 308 311 299 303 284 263 261 252 248 243 247 261 261 249 236 209 197 194 206 221
275 285 272 267 268 271 274 285 305 332 324 324 321 291 323 289 288 290 298 294 308 326 340 343 323 312 309 302 278 270 248 256 258 242 245 261 266 237 230 197 202 212 217 229
287 289 278 263 271 280 282 284 302 313 280 300 296 290 274 292 277 273 271 285 294 308 333 338 344 322 300 296 291 261 251 242 279 248 242 255 263 235 234 204 201 205 225 233
280 281 264 263 271 237 264 265 265 276 260 266 284 302 272 287 281 299 269 283 289 295 305 323 329 337 306 298 291 269 255 246 244 236 241 238 258 231 216 214 196 218 232 229
226 266 274 281 279 272 285 273 273 269 271 289 289 282 313 239 286 300 293 273 282 294 299 308 318 319 319 292 287 281 267 253 244 239 231 229 238 227 222 218 227 230 232 224
248 238 268 266 275 295 293 247 265 274 281 286 267 273 291 271 243 273 281 277 281 286 285 291 303 323 314 300 290 267 266 245 238 229 219 215 224 225 227 217 228 235 227 221
264 264 262 250 282 291 264 294 290 273 247 254 275 264 278 266 269 283 263 268 266 269 263 276 281 305 313 312 297 281 269 264 245 224 222 217 224 225 236 234 231 222 227 229
257 263 255 252 251 248 252 242 241 246 262 270 261 256 273 284 278 271 263 259 260 256 271 235 280 296 306 301 298 285 273 268 253 229 227 219 221 231 237 236 228 227 223 229
279 280 277 275 285 305 281 271 260 258 259 257 256 256 288 284 270 272 260 254 256 267 257 245 259 281 299 296 286 285 283 269 249 232 230 235 224 222 229 236 236 230 229 233
275 276 274 270 254 232 245 242 264 255 258 258 258 260 242 260 243 271 250 238 249 249 257 265 245 261 279 280 286 279 279 268 254 242 233 231 231 222 221 231 240 239 236 237
277 278 275 273 270 264 257 262 264 264 265 255 249 245 238 242 275 267 256 238 245 245 244 247 258 256 270 258 280 284 281 275 262 262 252 233 232 227 213 221 228 233 235 238
273 275 276 277 276 273 269 266 270 265 263 263 259 258 247 236 241 247 261 255 257 248 238 244 245 250 258 243 267 282 286 285 271 262 262 239 231 230 222 220 225 226 232 235
279 279 280 281 279 275 273 283 263 262 258 257 259 261 254 255 253 254 263 255 251 248 241 241 238 237 251 235 250 266 291 284 272 272 261 246 236 233 228 223 227 232 236 240
279 281 281 282 277 275 285 265 273 264 260 257 253 254 258 260 264 267 261 257 250 246 242 236 233 236 237 228 232 252 266 285 277 277 270 264 248 242 239 231 231 236 240 243
282 281 280 276 276 281 267 273 267 266 263 259 257 258 258 260 259 260 259 255 250 246 239 230 229 227 238 238 230 244 253 264 275 271 271 258 231 238 239 239 236 237 239 237
281 282 277 276 274 272 258 262 267 276 268 261 257 250 254 257 263 264 268 260 253 243 240 230 229 224 223 229 231 238 246 253 256 275 264 263 257 232 245 248 240 242 235 241
291 286 277 274 270 266 262 265 276 268 259 263 265 258 254 255 258 265 270 267 254 245 241 231 228 230 219 224 232 237 243 248 253 261 271 262 260 254 251 244 249 235 241 240
285 282 277 274 270 265 266 275 272 270 271 268 266 265 266 267 266 266 263 262 257 242 238 234 230 229 223 222 230 236 239 243 250 257 269 263 257 266 265 263 255 237 232 231
282 273 273 278 272 281 279 279 274 275 270 269 270 269 271 268 264 260 259 255 252 246 237 235 229 231 224 218 224 229 231 238 245 250 259 263 256 258 262 262 254 243 243 243
285 284 281 278 281 273 276 278 279 281 279 279 274 272 267 263 261 258 255 254 252 243 237 232 226 228 222 216 220 225 227 232 238 246 252 256 259 249 258 261 263 262 235 232
281 284 288 287 282 276 277 277 278 279 282 282 277 274 268 270 268 262 257 254 251 238 233 229 224 224 219 214 219 225 230 228 234 238 243 250 248 240 244 251 243 214 181 175
281 290 291 293 286 286 292 287 286 286 282 282 281 277 276 273 273 268 260 247 242 233 224 225 221 221 218 214 218 221 222 222 226 230 236 237 234 229 231 232 225 207 197 195
Height
5911 5912 5913 5914 5917 5914 5914 5913 5912 5911 5909 5907 5905 5903 5902 5901 5899 5894 5894 5893 5890 5888 5888 5887 5886 5885 5885 5884 5885 5886 5885 5885 5886 5886 5887 5888 5888 5886 5891 5895 5895 5898 5899 5900
5910 5910 5910 5911 5912 5912 5911 5911 5910 5910 5908 5907 5904 5903 5900 5900 5897 5895 5893 5892 5890 5888 5886 5885 5884 5884 5883 5882 5883 5884 5883 5884 5884 5885 5886 5886 5887 5887 5884 5890 5892 5896 5898 5900
5907 5908 5907 5907 5908 5908 5908 5908 5909 5907 5906 5905 5906 5906 5903 5900 5895 5894 5893 5891 5889 5888 5885 5883 5882 5881 5882 5881 5881 5882 5882 5882 5882 5883 5883 5883 5884 5884 5884 5888 5888 5895 5897 5899
5904 5904 5905 5904 5905 5905 5906 5908 5906 5905 5905 5905 5904 5905 5903 5900 5897 5895 5893 5891 5888 5887 5886 5883 5881 5880 5880 5879 5880 5880 5881 5881 5881 5881 5882 5882 5882 5882 5883 5885 5887 5893 5896 5898
5901 5901 5902 5902 5902 5902 5904 5903 5902 5903 5902 5901 5903 5907 5907 5898 5898 5895 5892 5889 5889 5887 5886 5884 5881 5878 5877 5876 5877 5878 5880 5880 5880 5880 5881 5881 5880 5880 5882 5884 5887 5892 5896 5898
5898 5898 5898 5898 5898 5898 5899 5900 5899 5898 5901 5903 5904 5904 5905 5902 5896 5891 5890 5888 5888 5887 5886 5883 5881 5878 5877 5875 5875 5876 5878 5878 5878 5878 5879 5879 5879 5878 5879 5882 5886 5891 5894 5897
5894 5895 5894 5894 5895 5896 5896 5897 5900 5905 5905 5905 5903 5901 5901 5896 5892 5889 5888 5885 5886 5886 5884 5883 5881 5878 5876 5875 5875 5874 5876 5876 5877 5876 5877 5877 5877 5876 5876 5879 5885 5890 5893 5896
5898 5901 5894 5891 5893 5895 5898 5898 5901 5903 5904 5903 5899 5900 5896 5891 5888 5886 5885 5883 5883 5883 5883 5882 5880 5878 5875 5874 5874 5873 5874 5874 5874 5874 5875 5876 5877 5875 5877 5880 5884 5888 5892 5894
5895 5896 5889 5887 5888 5891 5894 5894 5896 5897 5899 5898 5899 5897 5895 5888 5887 5883 5884 5881 5880 5881 5880 5880 5879 5877 5875 5873 5872 5872 5872 5872 5873 5872 5873 5875 5877 5877 5878 5881 5883 5886 5889 5893
5887 5887 5890 5889 5882 5884 5886 5891 5893 5894 5894 5894 5895 5889 5895 5887 5881 5880 5877 5877 5877 5877 5877 5877 5877 5876 5874 5872 5870 5870 5870 5870 5870 5870 5871 5872 5876 5877 5877 5879 5882 5884 5887 5890
5880 5881 5884 5885 5882 5886 5887 5884 5884 5886 5888 5889 5890 5891 5881 5879 5877 5875 5870 5874 5874 5874 5873 5874 5874 5873 5872 5871 5869 5867 5867 5867 5868 5868 5869 5870 5873 5876 5877 5878 5881 5883 5886 5889
5875 5876 5875 5877 5879 5878 5879 5877 5879 5882 5885 5881 5884 5885 5885 5874 5875 5866 5866 5869 5869 5870 5869 5868 5870 5869 5870 5869 5867 5866 5865 5865 5866 5867 5868 5868 5870 5873 5876 5878 5879 5881 5883 5885
5866 5868 5867 5869 5874 5871 5866 5867 5868 5871 5875 5876 5877 5879 5869 5869 5863 5858 5862 5865 5864 5865 5865 5865 5867 5866 5867 5866 5865 5864 5862 5862 5862 5863 5865 5866 5868 5869 5872 5875 5877 5879 5880 5882
5858 5860 5860 5861 5863 5863 5859 5859 5860 5863 5865 5867 5867 5867 5869 5864 5845 5847 5850 5857 5858 5859 5859 5861 5861 5862 5863 5864 5863 5862 5861 5860 5859 5860 5861 5863 5864 5866 5868 5871 5874 5876 5878 5879
5850 5849 5851 5849 5850 5851 5851 5849 5848 5849 5850 5850 5855 5855 5857 5857 5843 5839 5843 5848 5851 5853 5854 5855 5857 5858 5859 5860 5860 5859 5858 5857 5856 5856 5857 5858 5861 5863 5864 5867 5871 5874 5875 5877
5842 5841 5839 5838 5838 5838 5836 5837 5838 5836 5838 5837 5838 5837 5841 5843 5840 5833 5834 5843 5843 5845 5847 5848 5850 5852 5854 5855 5855 5856 5855 5855 5854 5853 5853 5854 5857 5859 5861 5863 5866 5869 5871 5874
5832 5831 5830 5828 5827 5826 5824 5827 5823 5824 5825 5825 5825 5827 5824 5823 5821 5824 5826 5832 5832 5835 5838 5840 5843 5845 5846 5849 5851 5851 5851 5851 5850 5850 5850 5850 5852 5854 5856 5858 5861 5864 5866 5869
5823 5822 5820 5818 5816 5814 5818 5811 5813 5814 5813 5814 5812 5811 5809 5812 5812 5815 5813 5819 5820 5823 5827 5831 5834 5837 5839 5841 5843 5847 5847 5847 5847 5847 5846 5846 5847 5849 5851 5854 5856 5859 5861 5862
5813 5811 5809 5807 5806 5806 5807 5803 5798 5802 5804 5800 5800 5799 5798 5800 5803 5803 5801 5805 5808 5812 5815 5820 5823 5828 5831 5833 5839 5841 5842 5844 5844 5843 5843 5842 5844 5844 5846 5848 5850 5852 5854 5854
5804 5800 5799 5798 5796 5796 5799 5785 5786 5791 5791 5787 5787 5789 5789 5790 5792 5787 5790 5795 5796 5799 5803 5809 5814 5816 5823 5827 5831 5834 5837 5839 5840 5840 5840 5840 5840 5839 5840 5842 5845 5847 5849 5851
5789 5789 5788 5785 5783 5784 5782 5773 5776 5780 5778 5773 5776 5778 5779 5779 5780 5780 5780 5780 5785 5788 5792 5797 5803 5808 5813 5819 5823 5827 5830 5833 5835 5835 5836 5836 5835 5836 5838 5838 5838 5841 5846 5849
5782 5779 5777 5777 5775 5777 5767 5768 5764 5762 5762 5763 5764 5764 5765 5765 5766 5766 5767 5768 5770 5776 5780 5785 5791 5797 5804 5810 5815 5819 5823 5826 5827 5829 5830 5830 5831 5833 5835 5834 5835 5838 5842 5844
5770 5766 5766 5764 5763 5759 5754 5754 5751 5747 5749 5750 5749 5750 5750 5750 5749 5750 5752 5755 5757 5763 5768 5773 5780 5785 5792 5799 5804 5810 5815 5818 5821 5823 5824 5825 5828 5830 5832 5833 5832 5833 5837 5840
5757 5752 5754 5751 5753 5747 5744 5742 5738 5737 5735 5737 5737 5735 5734 5734 5735 5735 5737 5740 5743 5749 5755 5761 5768 5773 5779 5788 5794 5800 5805 5809 5813 5817 5818 5819 5823 5826 5828 5827 5828 5829 5831 5834
5749 5743 5743 5742 5740 5736 5737 5733 5729 5726 5723 5722 5721 5720 5720 5720 5720 5720 5722 5725 5727 5733 5741 5748 5755 5761 5768 5777 5784 5790 5796 5799 5803 5808 5810 5813 5816 5822 5824 5825 5826 5826 5828 5832
5737 5736 5734 5733 5731 5726 5727 5724 5720 5715 5712 5709 5707 5706 5706 5705 5704 5703 5703 5705 5709 5716 5726 5734 5742 5749 5757 5766 5772 5777 5780 5786 5792 5797 5799 5803 5809 5814 5818 5820 5822 5823 5825 5829